This is the latest recevied weather packets stored in our database for station/object IW8XOI-10. If no packets are shown the sender has not sent any weather packets the latest 10 day(s).
| Time | Temp. | Humidity | Pressure | Rain* | Wind** | Luminosity | Snow |
|---|---|---|---|---|---|---|---|
| 1778046887 | 21.11° C | 47% | 1023.3 hPa | - | - | - | - |
| 1778043287 | 20° C | 48% | 1023.3 hPa | - | - | - | - |
| 1778039687 | 20° C | 48% | 1022.9 hPa | - | - | - | - |
| 1778036087 | 20° C | 48% | 1023.1 hPa | - | - | - | - |
| 1778032605 | 20.56° C | 48% | 1023.6 hPa | - | - | - | - |
| 1778032488 | 20.56° C | 48% | 1023.6 hPa | - | - | - | - |
| 1778028888 | 21.11° C | 47% | 1023.8 hPa | - | - | - | - |
| 1778025288 | 21.67° C | 47% | 1024.1 hPa | - | - | - | - |
| 1778021688 | 22.22° C | 47% | 1024.6 hPa | - | - | - | - |
| 1778018088 | 22.78° C | 47% | 1025.1 hPa | - | - | - | - |
| 1778014488 | 23.33° C | 46% | 1025.3 hPa | - | - | - | - |
| 1778010888 | 24.44° C | 45% | 1025.3 hPa | - | - | - | - |
| 1778007288 | 25.56° C | 44% | 1024.9 hPa | - | - | - | - |
| 1778003688 | 25.56° C | 44% | 1024.6 hPa | - | - | - | - |
| 1778000088 | 25.56° C | 44% | 1024.7 hPa | - | - | - | - |
| 1777996488 | 25.56° C | 44% | 1024.8 hPa | - | - | - | - |
| 1777992889 | 24.44° C | 45% | 1025 hPa | - | - | - | - |
| 1777989289 | 23.89° C | 44% | 1025 hPa | - | - | - | - |
| 1777985689 | 23.89° C | 45% | 1025.5 hPa | - | - | - | - |
| 1777982089 | 22.78° C | 45% | 1025.8 hPa | - | - | - | - |
| 1777978489 | 22.22° C | 45% | 1025.7 hPa | - | - | - | - |
| 1777974889 | 21.67° C | 46% | 1026 hPa | - | - | - | - |
| 1777971289 | 21.67° C | 45% | 1025.8 hPa | - | - | - | - |
| 1777967689 | 21.67° C | 44% | 1025.9 hPa | - | - | - | - |
| 1777964089 | 21.67° C | 44% | 1025.6 hPa | - | - | - | - |
* Rain since midnight (hover to see other rain measurements)
** Current wind speed in m/s (hover to see current wind gust speed)